Theta_e
323 323 323 322 324 329 330 332 334 338 343 340 335 336 335 332 334 343 346 344 348 351 352 353 355 362 361 356 356 352 352 354 353 354 353 352 352 352 353 352 352 352 351 349 348 349 349 350 351 352 353 354 355 356 357 357 357 356 355 355 355 354 354 355 356 357 357 358 358 357 356 356 355 354 355 356 358 357 355 354 353 352 351 351 350 349
323 321 321 324 326 330 331 332 334 336 342 340 334 333 331 329 334 343 346 344 347 350 349 353 357 360 359 356 355 353 353 353 352 352 352 352 351 351 352 351 351 350 348 349 348 347 348 350 351 352 353 353 354 355 356 357 356 356 355 355 355 354 355 357 357 358 359 358 358 358 357 355 354 354 354 356 357 356 355 353 352 351 351 350 348 347
321 320 322 325 325 329 332 332 333 335 338 336 333 330 326 330 335 337 345 349 346 347 350 354 355 355 358 357 355 354 354 352 351 351 350 351 351 351 351 350 350 350 349 350 349 347 347 349 351 351 352 353 353 354 355 356 356 356 356 355 355 355 356 357 358 358 358 357 357 357 356 353 353 353 353 355 355 354 353 351 351 352 351 349 348 347
318 321 323 324 324 329 333 331 332 332 330 331 333 327 325 333 332 326 338 351 348 347 351 357 358 358 359 359 357 353 353 353 351 350 349 349 350 350 349 349 349 350 349 350 349 348 347 348 351 351 352 353 353 354 354 356 356 356 356 355 356 355 356 357 357 357 357 356 356 356 355 353 353 353 353 354 353 352 351 351 352 352 350 347 346 346
320 324 325 324 327 331 332 333 333 329 327 329 332 329 328 335 332 330 339 347 347 345 350 357 354 354 359 360 360 355 352 354 352 352 351 349 349 349 349 349 349 349 349 349 350 349 348 349 351 352 352 352 353 353 354 355 356 356 355 355 355 356 356 357 357 357 356 356 356 356 355 353 353 353 353 353 352 351 351 350 351 352 349 345 344 345
322 324 324 325 329 329 330 333 332 329 327 325 330 333 334 340 340 341 344 343 340 337 346 351 340 345 361 359 358 358 355 355 354 353 353 351 350 350 351 350 348 348 348 349 350 349 348 348 351 352 352 352 353 354 353 354 355 356 355 355 355 356 357 357 356 355 356 356 356 356 355 353 353 353 352 352 351 351 349 347 348 350 350 346 344 345
321 323 325 326 328 329 331 330 330 332 326 322 332 337 335 342 343 342 343 340 335 335 345 347 337 342 356 354 355 358 356 356 355 354 352 352 351 350 350 350 349 349 348 349 349 349 348 349 350 352 353 353 353 354 354 354 355 356 356 356 356 356 357 357 355 355 356 356 356 356 355 354 354 353 352 352 351 350 347 346 346 347 349 347 345 344
322 323 326 327 327 328 328 327 331 333 326 326 336 336 334 340 342 343 340 336 338 340 343 347 341 338 341 347 353 356 356 357 355 354 352 351 351 351 350 350 350 349 349 349 350 350 350 349 350 352 353 353 353 354 354 355 355 356 356 356 356 356 356 356 355 356 356 356 357 357 356 355 354 354 353 352 351 349 345 345 346 345 347 348 345 344
323 322 325 328 326 325 327 332 336 332 330 336 337 332 332 334 338 344 338 332 339 338 336 344 343 333 337 351 356 354 355 356 355 353 352 351 350 350 351 351 350 350 349 350 350 351 350 349 350 351 353 353 354 354 354 355 355 355 356 356 355 356 356 356 356 355 356 357 357 357 357 356 355 355 354 352 351 348 344 344 345 345 346 346 344 344
324 323 324 325 325 327 332 339 335 330 332 335 331 330 333 335 339 342 338 336 336 333 332 339 339 331 337 351 353 351 352 353 354 353 351 350 349 349 350 350 350 351 350 350 351 351 350 350 351 351 352 354 354 355 354 354 355 355 356 356 355 356 355 356 356 356 357 357 358 359 359 358 357 356 354 353 351 347 343 342 343 344 344 344 343 343
324 328 327 325 326 328 334 335 329 330 333 329 329 331 333 342 350 351 352 343 333 333 334 335 337 332 334 345 350 350 353 352 352 352 350 349 348 347 349 349 350 351 351 351 351 352 351 351 352 351 352 353 354 355 355 355 355 355 355 355 355 355 355 354 355 355 356 358 359 360 360 360 359 357 354 352 349 344 341 341 342 342 342 342 341 340
321 323 325 329 331 328 328 328 325 330 330 327 336 332 325 334 342 339 342 337 329 334 337 334 338 334 330 341 350 350 351 351 351 351 350 349 348 347 346 347 349 350 350 351 352 353 353 353 353 352 353 354 355 355 355 355 355 355 355 355 355 354 354 354 354 355 356 359 361 361 362 362 360 357 354 352 347 342 339 339 340 341 341 340 339 338
320 321 323 326 329 327 325 325 323 325 326 329 335 327 319 324 324 322 329 333 330 333 337 337 338 335 334 340 347 350 349 348 348 348 349 348 347 347 345 346 348 350 350 351 353 353 354 356 354 353 354 354 355 355 355 355 355 355 355 355 355 355 355 355 355 355 356 359 361 362 363 362 359 356 354 351 347 342 339 338 339 340 340 340 339 339
316 320 322 320 323 327 326 321 319 322 326 326 328 322 319 320 318 320 328 331 330 329 332 338 339 336 337 344 348 348 344 345 347 345 347 348 348 347 346 346 347 348 350 351 352 353 355 356 354 354 355 355 355 356 355 356 355 355 355 355 355 355 355 356 356 356 357 360 361 362 362 359 357 355 351 347 346 342 339 338 339 338 339 340 340 338
312 315 321 321 320 326 326 323 324 331 329 325 332 328 321 322 320 320 325 326 326 327 328 335 341 337 334 343 353 351 344 343 345 345 347 349 350 347 346 347 347 348 350 351 352 353 355 355 354 355 355 355 356 356 356 356 356 355 355 355 355 355 356 356 357 357 358 359 360 360 359 357 357 354 347 343 343 341 339 338 338 337 337 339 339 338
311 313 324 325 322 325 326 326 330 333 325 324 334 327 319 326 326 320 327 333 330 326 327 333 342 346 342 342 355 363 358 349 344 345 347 349 352 350 348 350 349 349 350 351 353 354 355 355 355 355 355 356 356 356 356 356 356 356 355 355 355 355 356 356 357 357 357 358 359 358 356 356 356 351 344 341 340 339 337 337 336 335 336 337 339 338
311 315 328 325 323 326 326 328 328 326 324 324 324 321 322 330 330 321 321 329 325 320 327 332 333 337 337 340 354 361 359 354 350 347 345 347 352 351 350 350 349 350 350 351 353 354 355 354 354 356 356 356 357 356 357 357 356 356 356 356 356 356 356 356 356 356 356 357 357 356 355 355 354 349 343 340 338 337 336 335 334 333 334 337 339 338
317 319 330 325 321 324 325 328 328 326 329 326 319 323 327 326 333 333 322 322 322 320 326 328 326 326 325 338 362 360 351 357 360 351 344 347 352 351 350 349 349 351 351 352 353 353 355 354 354 356 356 357 357 356 357 357 357 357 357 357 357 356 357 356 355 355 355 356 356 355 355 354 353 349 344 340 337 336 335 334 333 333 335 338 339 338
319 317 328 330 322 325 326 322 322 323 326 327 325 329 327 319 323 328 322 322 322 322 327 326 325 328 326 336 355 351 349 354 356 355 349 347 351 349 347 348 349 351 352 353 353 353 355 355 354 355 356 357 357 357 357 357 357 358 357 358 357 357 357 355 355 355 355 356 355 354 355 354 353 349 343 339 337 336 335 334 333 333 335 338 338 337
323 316 321 329 325 324 325 319 315 318 321 325 327 326 326 324 323 322 323 323 321 324 330 325 322 328 333 341 347 346 353 351 351 361 356 347 348 347 345 348 348 351 353 353 353 353 355 354 355 356 356 357 357 357 358 357 357 358 358 358 357 356 356 355 354 354 354 354 354 353 354 354 352 348 343 339 337 336 335 334 333 332 334 336 337 337
325 318 316 326 327 320 320 320 315 317 320 322 321 320 321 323 325 324 325 326 325 327 331 327 323 331 344 350 348 347 354 353 351 360 357 347 346 345 346 348 348 350 352 352 353 353 354 354 355 356 356 356 357 357 358 357 357 357 358 357 357 356 355 355 354 353 353 353 352 353 353 352 350 346 342 339 336 335 335 334 333 332 332 334 336 336
323 322 316 318 320 316 320 328 325 322 324 323 321 321 321 321 322 319 320 324 326 325 330 329 320 328 348 352 345 344 352 354 350 352 353 349 346 346 346 346 347 349 349 351 353 353 353 354 354 356 357 356 357 357 358 358 358 357 358 357 357 356 355 355 354 353 353 352 350 351 350 350 348 345 342 339 336 335 335 334 333 332 332 333 334 333
332 331 318 314 318 321 325 330 326 322 325 326 323 324 325 325 322 314 315 324 323 320 327 326 317 328 358 360 346 345 356 359 352 349 351 349 346 346 346 345 348 349 348 349 351 352 354 354 354 355 357 357 357 357 357 358 358 357 358 357 357 357 356 355 354 353 352 350 349 349 349 348 347 344 341 339 336 335 334 333 333 332 332 333 333 331
334 328 318 314 319 323 324 326 327 325 325 322 322 325 324 324 323 320 325 331 324 320 324 320 317 338 372 368 352 355 364 363 354 348 350 349 347 347 346 347 349 350 349 349 350 353 354 353 355 356 356 357 357 357 357 358 358 358 358 357 357 357 356 356 354 353 351 350 348 347 347 346 345 343 340 338 336 335 334 333 333 332 332 333 332 330
324 325 321 315 315 317 318 320 320 321 323 324 326 327 324 325 327 327 333 330 321 322 325 319 319 337 365 367 355 357 361 358 351 346 348 350 349 347 347 349 350 350 350 350 351 354 355 355 356 356 356 357 357 357 358 357 358 358 358 358 357 357 357 355 354 352 351 349 348 346 344 344 344 343 341 339 336 334 333 333 333 332 332 333 332 331
323 331 325 315 315 316 315 317 319 322 325 329 331 327 324 327 325 324 327 320 318 325 325 323 326 337 354 360 351 354 359 358 355 349 348 351 350 349 350 349 351 352 351 351 351 354 355 356 357 357 355 356 357 357 358 357 358 358 357 358 357 357 357 356 354 352 350 349 347 345 344 343 342 342 341 338 336 335 334 333 333 333 333 333 333 333
333 338 326 318 318 316 317 324 335 336 325 320 325 325 325 326 324 328 326 318 324 330 326 335 341 330 335 347 347 356 359 357 360 355 350 352 352 352 353 351 352 351 349 350 350 352 355 356 357 357 355 355 356 357 358 358 358 358 357 358 357 357 357 356 354 352 350 348 347 345 343 342 341 341 339 336 335 335 335 334 334 334 333 334 334 334
336 327 323 326 323 320 323 330 339 337 323 319 324 322 324 327 324 326 323 322 333 327 320 345 356 327 327 346 350 360 362 356 359 356 351 352 351 351 352 352 353 352 350 351 350 351 355 355 356 357 354 353 355 356 357 357 357 357 357 357 357 357 356 355 355 352 350 348 347 345 344 342 340 339 337 336 335 334 335 336 335 335 336 336 335 334
333 320 322 326 322 324 325 325 333 335 327 326 328 323 323 326 323 322 322 329 337 323 318 346 357 333 332 346 345 354 361 358 358 353 348 348 348 349 352 353 354 353 350 351 350 351 353 353 354 356 354 352 353 355 356 357 357 357 357 357 357 357 357 355 355 352 350 348 346 346 345 341 338 337 337 337 336 335 336 336 335 337 337 336 336 335
329 328 334 325 318 324 323 322 329 329 327 327 327 327 326 325 324 323 324 332 335 326 328 348 352 340 337 342 342 346 348 349 351 348 345 347 349 351 353 353 353 351 350 350 350 351 351 351 352 354 354 352 352 354 356 356 357 357 356 357 357 356 356 355 354 352 350 348 346 346 343 339 337 337 336 337 335 334 336 336 336 337 337 337 337 336
325 335 346 328 317 320 321 324 326 323 324 323 321 329 329 324 325 322 322 331 332 328 333 342 343 341 339 342 346 345 344 347 350 349 347 347 350 351 351 352 352 350 349 349 349 350 351 352 352 355 356 353 350 353 355 355 356 356 356 356 356 356 356 354 354 352 350 348 346 344 342 338 337 336 337 337 336 335 336 336 336 337 338 337 337 337
330 336 340 326 317 319 322 323 322 322 323 319 317 324 325 322 325 323 326 336 333 328 334 337 332 335 340 345 346 346 349 349 349 350 348 346 349 350 350 351 351 350 350 350 350 352 352 353 355 356 355 350 348 351 353 354 355 355 356 356 355 355 355 353 353 351 350 349 346 343 341 338 337 337 337 337 336 337 337 335 335 338 338 337 338 337
340 333 333 326 318 319 323 322 322 321 317 316 320 322 321 326 328 325 332 345 341 333 334 331 328 336 347 347 343 347 351 348 347 347 346 346 349 349 350 350 349 349 350 350 351 352 352 353 353 351 349 346 347 350 351 353 354 354 355 355 355 355 354 353 352 350 349 348 346 344 341 339 338 338 337 336 336 338 338 335 336 337 335 337 339 338
343 333 334 331 317 315 322 324 323 318 315 325 338 335 326 326 325 327 338 348 345 343 344 340 338 350 355 349 345 348 349 348 347 341 339 345 347 346 349 351 350 350 351 352 354 353 353 354 350 345 344 345 347 348 350 352 353 354 355 355 354 354 353 352 351 349 348 347 346 344 342 340 340 339 338 336 336 338 339 339 337 332 330 335 340 338
340 335 336 332 321 321 326 323 318 318 325 339 346 339 331 327 329 339 347 348 345 347 354 357 353 354 358 357 351 348 346 352 354 348 348 353 350 347 349 351 354 357 357 358 359 357 357 358 352 344 343 346 346 347 349 350 351 353 353 353 354 353 353 352 350 348 348 347 346 345 343 341 339 338 339 337 334 336 339 338 334 331 333 338 339 339
336 339 339 332 326 325 323 317 317 326 337 342 341 341 340 335 336 342 339 339 343 343 346 357 359 354 355 356 353 350 349 352 354 350 348 352 352 351 352 354 357 360 361 362 363 362 357 354 350 345 345 346 347 347 349 350 351 352 352 352 353 352 351 351 349 348 347 347 346 345 343 341 339 338 338 337 334 336 337 333 330 331 337 340 340 339
336 344 340 327 325 331 326 319 322 328 332 337 339 341 341 338 340 345 339 336 341 341 340 350 359 351 347 348 349 349 350 351 355 353 346 344 346 349 351 352 353 357 362 360 356 354 350 346 345 345 345 346 346 347 349 350 351 352 352 351 351 351 350 349 348 347 347 346 346 344 343 341 339 338 338 338 337 336 335 333 332 333 336 338 338 338
336 341 336 324 326 338 334 327 328 327 328 340 347 341 337 334 336 344 345 338 339 341 339 345 351 347 344 343 343 347 353 357 362 359 347 341 344 347 347 346 347 351 354 350 346 346 345 345 345 345 345 346 346 347 348 349 351 352 351 350 349 348 348 347 347 346 346 346 345 344 342 340 339 338 338 337 336 335 334 333 333 332 332 334 336 337
341 340 339 334 334 337 333 330 334 332 332 346 354 342 335 335 335 338 339 335 339 344 341 341 344 343 342 342 341 345 356 360 357 352 346 342 343 347 350 352 355 356 348 342 341 343 344 346 346 345 346 346 346 346 346 348 350 351 350 348 347 345 345 344 344 344 345 345 344 343 342 340 338 338 337 335 334 334 333 330 327 327 330 334 337 338
359 352 343 339 339 341 339 337 337 335 336 344 346 338 333 334 333 330 329 333 341 344 340 340 342 341 342 344 342 344 350 352 347 343 341 339 340 345 353 360 369 372 358 345 342 342 344 347 347 346 347 347 347 347 347 347 349 348 347 345 344 343 343 342 342 343 343 344 343 341 340 339 337 336 335 334 332 331 331 328 326 328 333 336 337 337
357 358 348 339 338 341 344 339 332 335 341 340 337 334 333 334 334 329 330 336 342 342 340 339 338 338 339 340 340 341 344 343 340 339 338 339 341 344 348 351 356 359 353 346 345 345 346 347 346 346 346 346 347 347 345 347 347 345 344 343 342 342 342 341 342 342 342 343 341 340 339 338 337 335 334 332 331 330 330 329 330 333 336 337 337 336
344 351 350 347 341 338 344 344 337 338 341 334 331 334 336 341 343 338 335 339 340 340 339 338 336 338 338 338 339 340 340 338 337 338 338 339 342 344 345 349 352 351 347 344 344 345 346 345 345 344 344 344 346 346 346 346 345 343 342 342 341 341 341 340 341 341 341 341 339 338 338 337 336 335 333 331 329 328 329 329 331 335 337 338 338 336
349 348 345 346 343 339 345 349 342 339 336 330 335 346 347 344 344 340 338 338 337 337 336 334 336 337 337 337 339 339 339 338 338 338 337 338 340 340 342 346 349 349 346 344 342 342 343 343 342 342 343 344 345 345 345 345 342 341 341 339 339 340 340 339 340 340 340 339 338 337 337 336 334 332 330 329 327 326 328 331 333 336 338 337 337 335
355 353 347 345 344 341 344 347 342 339 335 330 336 347 344 338 339 339 336 334 333 332 331 331 334 335 334 335 336 336 337 339 339 339 338 338 339 340 342 346 348 348 346 342 340 340 341 341 340 340 342 342 343 344 344 344 342 339 338 338 338 339 339 339 339 339 338 338 336 336 335 333 331 329 329 329 330 330 332 334 335 336 336 336 334 333
352 355 349 344 340 337 339 341 339 338 336 331 331 336 335 334 336 334 332 332 332 331 330 330 331 332 331 332 332 333 335 337 338 339 338 337 340 342 344 344 344 344 344 342 340 340 340 340 339 340 340 341 342 343 343 343 342 339 337 338 338 338 338 337 337 338 337 336 335 334 333 332 331 331 332 334 335 335 335 335 335 335 335 334 333 333
343 346 346 345 341 336 336 338 336 335 335 333 331 331 331 332 332 330 329 331 331 330 329 330 330 330 330 331 332 333 334 336 339 340 340 340 342 344 348 349 342 337 338 341 341 340 340 340 339 339 339 339 341 342 342 342 342 340 338 338 338 338 337 336 336 336 336 335 335 334 333 333 333 334 335 336 336 336 335 335 335 334 334 333 333 333
338 339 344 345 343 342 342 342 337 333 333 333 332 331 331 331 332 332 332 331 331 329 329 330 330 329 329 331 333 334 334 337 343 347 346 346 345 345 351 357 348 337 335 339 341 340 339 340 338 336 336 337 339 341 341 341 341 340 338 337 337 337 336 336 335 335 335 335 334 334 335 335 334 334 334 334 334 334 333 333 333 333 332 332 333 333
337 338 341 340 341 345 345 341 335 330 330 330 329 329 330 329 330 332 332 331 330 329 327 327 328 328 329 331 333 333 331 333 340 344 344 344 344 344 347 350 344 337 335 337 339 339 339 338 336 335 336 337 339 340 340 340 340 339 338 337 337 336 335 335 335 334 335 335 335 335 335 335 334 334 333 332 332 332 331 330 331 332 332 331 331 332
333 340 341 339 340 340 337 334 333 332 332 330 328 329 330 328 329 330 330 328 328 327 326 325 325 324 326 328 329 329 329 329 332 335 336 337 339 342 345 343 337 335 336 337 337 338 339 338 337 336 336 336 337 338 338 338 338 337 337 337 336 336 335 335 335 335 335 335 335 335 335 334 334 333 332 330 329 328 326 326 329 332 332 330 329 330
332 342 339 335 337 338 336 333 333 334 335 333 330 331 330 327 326 328 327 325 326 325 325 325 325 324 324 325 326 327 328 328 329 332 334 337 339 341 341 337 333 334 337 338 337 337 338 338 337 336 335 335 334 333 334 335 336 336 336 336 336 337 336 336 335 334 334 334 334 335 334 333 331 330 329 327 325 325 325 326 328 331 332 331 330 329
331 340 338 334 336 339 338 333 330 332 333 330 328 330 329 326 326 326 325 324 324 324 323 324 325 324 323 324 324 325 326 327 328 329 331 332 332 334 336 336 335 337 338 338 336 335 335 336 337 335 333 332 330 329 329 331 333 335 336 336 336 336 336 335 333 332 332 332 332 331 329 327 326 326 326 324 322 323 326 326 326 327 328 328 328 328
Wind_Speed
5 4 4 6 7 8 10 10 9 10 10 8 6 5 7 7 7 6 1 1 9 8 8 7 3 4 8 11 13 11 10 10 10 10 10 10 9 9 10 10 10 11 12 14 20 23 25 27 27 27 27 27 27 28 28 28 29 29 29 29 29 28 28 28 27 26 25 24 22 20 19 17 16 15 14 14 14 13 11 12 13 13 12 13 12 12
4 7 7 8 10 10 11 9 7 9 11 8 6 5 5 5 4 2 0 2 7 6 5 4 3 4 6 9 10 10 12 13 14 14 12 12 11 9 10 12 11 10 9 10 14 19 22 25 26 27 26 26 26 27 28 29 29 30 29 29 29 29 29 29 28 26 26 26 24 22 21 20 18 16 16 15 15 14 12 10 10 10 10 12 11 10
4 7 9 9 9 7 6 7 9 9 10 7 5 6 4 4 3 3 3 4 6 4 3 2 4 3 3 6 9 11 14 13 12 13 12 12 11 10 11 12 11 10 8 8 10 15 20 23 25 26 25 27 28 28 29 30 30 30 30 30 30 29 30 29 28 27 27 26 25 23 21 20 18 17 16 15 14 13 12 10 10 11 10 10 10 10
5 6 7 8 7 8 6 5 9 8 7 6 5 6 4 4 5 5 3 5 5 2 1 4 3 2 1 5 7 11 11 7 7 10 9 10 12 13 13 11 11 12 11 10 10 12 17 20 22 24 25 27 28 28 29 29 30 30 31 32 31 31 31 30 29 29 28 26 24 23 20 18 17 16 15 15 14 13 12 11 12 11 10 11 12 13
5 6 5 10 8 9 7 5 8 7 4 5 5 7 4 5 8 5 4 7 4 2 2 6 4 5 3 7 8 9 9 8 8 9 10 10 12 11 10 11 12 13 12 12 11 11 14 18 21 24 26 27 27 28 29 31 31 32 33 33 33 33 31 30 30 29 28 26 24 22 18 15 15 14 14 15 16 15 13 13 13 13 13 13 15 16
7 5 7 11 7 8 7 6 8 8 6 4 6 8 9 9 7 6 10 9 5 2 4 5 2 5 4 8 11 8 9 11 9 10 13 12 12 10 9 11 12 12 12 12 13 12 13 17 20 23 25 26 27 29 32 33 33 34 34 34 34 33 32 31 30 28 28 27 25 23 21 18 16 15 15 16 17 16 16 14 14 15 15 16 16 17
5 4 6 9 8 9 7 5 7 8 8 4 6 9 10 9 9 10 12 9 5 4 5 7 6 5 4 6 11 9 10 13 11 11 14 13 12 12 11 12 12 12 12 12 12 12 14 17 19 21 25 27 28 31 32 32 33 34 34 34 34 33 32 31 30 29 29 28 27 26 24 23 21 19 18 17 15 15 15 14 13 14 16 17 17 17
5 6 5 7 8 8 7 6 7 8 8 4 6 11 11 9 11 12 11 8 5 2 2 6 5 2 5 6 9 11 10 11 12 14 15 14 14 14 14 14 14 14 13 12 12 13 14 18 22 24 27 30 31 31 31 31 33 34 34 34 34 33 32 31 30 30 29 29 28 27 26 25 24 21 19 16 15 14 13 13 14 15 16 18 18 16
4 8 8 8 6 5 6 6 8 10 6 5 6 10 10 9 10 11 10 6 4 4 1 4 3 2 6 5 3 10 11 12 16 18 18 17 17 16 16 16 15 15 14 13 13 14 15 20 25 28 29 31 31 30 30 32 33 34 35 35 34 33 32 32 31 30 30 30 29 28 27 26 24 22 19 17 17 16 14 15 16 16 17 18 17 16
3 7 9 9 6 5 6 5 9 11 5 5 7 8 6 5 5 7 7 4 4 4 5 7 6 5 6 4 3 7 9 14 17 18 18 18 17 17 16 17 16 14 12 13 13 14 17 22 26 27 28 30 30 30 31 32 33 33 34 34 34 33 33 32 32 31 31 30 29 29 28 27 25 23 20 17 18 18 17 18 18 17 18 17 17 16
5 3 4 6 6 7 6 4 8 12 8 6 7 7 7 6 4 3 1 3 4 1 6 9 12 9 5 4 4 7 11 17 17 14 15 16 17 17 17 17 17 14 12 12 13 14 18 23 24 24 26 28 29 30 31 31 32 33 34 34 34 34 33 33 33 32 31 31 30 30 29 28 27 24 21 20 21 20 20 20 20 19 19 18 17 16
5 3 2 3 4 6 6 3 4 7 6 7 5 5 4 3 4 4 5 4 3 4 7 8 9 7 6 6 6 11 16 17 16 15 15 18 19 19 17 16 16 15 13 12 13 13 14 16 18 22 25 27 29 29 30 31 32 32 34 35 34 33 33 34 33 33 32 32 32 32 31 30 28 26 24 24 24 24 24 23 22 21 20 18 17 16
4 5 5 5 3 6 8 4 2 2 1 5 5 6 5 1 2 1 1 0 3 5 6 6 8 4 7 9 8 11 14 13 15 17 17 18 20 19 18 16 14 13 13 13 13 12 12 12 15 20 24 26 28 30 31 31 31 32 34 35 35 35 34 34 34 34 33 33 33 33 33 31 29 27 26 26 26 26 26 25 24 23 22 20 19 18
2 5 5 5 5 3 8 7 4 2 2 5 6 6 5 3 2 3 3 0 2 5 4 5 9 4 5 7 10 14 17 17 17 17 15 12 14 17 17 15 14 14 15 14 13 13 13 13 16 21 25 26 28 31 32 32 33 33 34 36 36 36 36 35 35 35 34 34 34 33 33 31 29 28 27 27 27 27 26 26 25 24 23 22 21 20
4 5 6 7 5 3 7 7 7 6 6 6 5 6 6 5 5 4 3 3 4 3 2 3 6 5 3 4 8 13 15 14 14 13 11 6 7 11 12 11 12 14 14 13 13 14 14 16 20 23 25 27 29 31 32 33 34 34 35 37 38 38 37 37 36 36 35 34 34 33 32 30 28 28 27 26 26 26 26 26 24 23 23 23 21 20
5 7 7 6 5 5 6 5 7 8 5 5 3 5 5 7 6 2 3 6 5 2 1 2 3 5 5 6 6 4 6 8 11 10 10 8 7 9 9 11 12 13 13 13 13 14 15 17 22 24 25 27 28 29 31 32 34 35 37 38 40 40 39 37 36 36 35 35 34 33 32 30 28 28 27 26 25 25 25 24 23 22 22 22 21 20
4 6 6 4 4 6 8 6 6 7 5 3 3 4 5 6 7 3 2 2 3 2 2 2 3 4 2 6 7 2 4 7 8 9 12 11 8 10 11 12 12 13 14 14 14 15 15 17 21 25 26 27 28 29 32 35 37 39 39 38 39 40 37 36 36 37 36 35 35 34 32 30 29 29 27 26 25 25 24 23 22 21 21 21 21 20
4 5 7 6 8 8 7 7 5 6 7 5 5 7 3 3 3 3 2 1 2 3 4 2 5 3 1 3 6 3 6 10 9 8 10 8 9 12 12 12 14 15 15 15 15 15 15 16 20 25 27 29 32 33 36 39 40 39 38 38 38 37 37 37 37 37 36 36 35 33 32 31 31 30 28 26 25 24 24 23 23 21 21 21 21 20
5 4 7 6 10 6 4 6 6 6 4 3 5 7 5 3 2 1 3 2 1 3 3 3 3 3 4 5 5 5 9 13 11 7 7 8 11 14 14 14 15 14 13 13 14 14 14 15 19 24 27 29 32 35 37 38 37 35 35 36 36 36 36 34 33 34 35 35 35 35 35 34 33 31 30 27 25 25 25 25 23 21 21 21 21 20
4 4 6 5 7 4 4 6 8 8 3 2 3 4 3 3 5 3 3 4 4 4 3 3 3 3 6 7 7 10 12 13 11 8 8 12 15 14 12 12 13 13 13 13 14 14 14 15 21 27 30 31 34 36 37 36 35 35 36 35 35 34 33 31 31 34 35 36 36 37 37 37 35 34 31 29 27 27 27 25 23 21 21 22 21 20
3 4 5 5 2 3 4 6 11 12 6 3 4 5 2 1 3 2 2 4 4 4 4 3 3 5 7 6 9 13 12 12 12 11 11 12 13 12 10 11 12 12 13 14 14 14 14 16 21 28 30 32 33 34 34 33 33 36 36 34 34 34 32 32 34 35 36 37 37 38 39 38 37 35 33 31 29 28 27 24 22 22 23 23 22 21
4 4 5 4 2 4 7 7 9 11 9 8 6 6 6 4 4 3 4 1 2 3 5 5 4 7 7 6 9 12 10 10 12 12 11 11 11 11 10 13 14 13 13 14 14 14 14 14 19 25 27 28 28 29 31 31 33 34 34 35 36 35 35 36 36 37 38 37 37 38 38 38 38 37 36 33 30 29 27 23 22 23 24 24 23 20
5 4 5 6 5 6 9 7 4 7 9 9 7 7 7 6 6 6 7 3 1 1 2 3 3 7 6 5 9 10 8 7 8 9 9 9 10 12 12 13 12 12 13 14 13 13 13 13 18 23 25 27 28 30 32 33 34 34 36 37 37 36 38 39 38 38 37 36 37 38 39 39 40 39 37 35 33 31 28 25 24 25 25 24 22 20
4 3 5 5 5 6 8 6 3 2 5 6 6 7 8 8 8 7 6 5 4 3 3 2 3 6 6 3 5 7 6 6 7 9 10 8 8 10 12 11 10 11 12 12 12 11 10 12 16 18 20 24 27 29 31 32 33 34 36 36 36 37 39 39 36 36 35 36 37 38 39 41 41 40 38 37 35 32 29 26 25 25 26 24 22 21
5 3 4 4 3 6 7 5 4 2 4 5 5 6 9 11 10 4 3 4 5 6 7 5 4 6 6 4 2 4 5 6 8 8 9 9 8 9 10 9 9 9 10 10 11 10 10 12 13 14 17 22 25 27 30 31 33 34 34 34 35 36 37 36 35 34 35 36 37 37 39 41 42 42 41 39 36 33 30 27 27 28 28 26 24 23
6 5 6 6 7 8 8 7 6 4 4 3 3 6 8 10 12 7 3 4 6 5 6 6 5 6 7 4 2 3 6 7 8 7 7 8 8 8 8 8 8 8 10 12 12 11 12 12 12 13 16 21 24 26 28 30 31 32 32 33 34 34 33 33 33 33 34 35 36 37 39 40 42 43 41 37 34 31 27 26 27 29 29 27 26 24
3 5 8 10 10 10 9 9 6 5 5 4 5 8 8 9 12 9 5 6 7 4 4 7 7 6 7 6 6 6 7 8 8 7 8 8 8 8 8 8 8 8 9 11 11 11 11 11 12 14 16 20 24 26 28 29 29 30 30 32 33 32 30 30 31 33 34 35 36 38 40 41 42 40 33 28 26 25 23 25 27 28 28 28 26 25
3 5 9 12 14 14 13 12 8 6 7 8 9 10 10 10 12 10 7 7 7 7 6 9 6 8 9 9 10 9 7 7 7 9 11 10 9 8 8 7 8 8 8 9 9 11 11 12 12 12 14 19 22 23 25 26 27 28 29 30 30 30 29 30 32 34 34 35 37 38 41 42 39 34 29 28 27 26 27 30 30 29 29 29 27 26
4 5 8 11 14 16 16 14 11 8 6 7 8 9 10 11 13 14 12 10 9 8 9 8 9 11 10 10 12 12 11 12 12 11 9 6 5 6 7 9 10 10 10 11 11 11 11 12 12 12 13 16 19 21 22 24 25 26 27 28 28 29 31 32 34 35 35 36 37 39 39 33 27 27 31 34 34 33 34 35 33 30 29 29 28 27
3 5 6 10 13 15 16 13 11 11 9 7 7 8 9 10 13 14 13 12 13 12 11 10 13 13 10 11 13 12 10 9 6 5 6 6 7 9 10 11 12 13 13 12 12 11 12 12 11 10 10 12 16 19 20 21 22 24 25 26 26 28 31 33 34 34 34 34 35 34 27 15 16 22 31 38 39 39 38 35 32 30 30 30 30 28
3 5 3 6 7 11 12 11 9 11 12 12 12 10 8 7 8 9 8 6 8 10 8 8 10 11 9 8 9 5 3 5 5 7 9 10 10 11 11 12 13 14 13 12 11 10 10 9 8 8 8 11 16 19 19 20 21 22 24 24 25 28 30 31 31 31 32 33 32 27 20 19 24 31 39 44 43 40 37 32 30 30 29 31 32 30
2 3 1 4 4 7 7 10 11 9 9 11 14 13 9 7 7 6 5 5 7 8 5 6 6 9 9 6 5 2 4 7 8 9 10 9 9 12 13 15 16 15 12 11 11 10 9 9 9 10 10 12 15 17 19 20 19 21 23 24 25 27 27 28 30 30 30 30 27 24 24 28 34 40 45 46 40 35 34 33 31 28 27 29 31 31
3 3 1 4 4 6 6 9 9 6 4 7 11 12 11 9 7 5 4 6 8 6 6 6 8 9 6 6 6 5 6 9 10 10 9 10 11 14 15 16 14 12 11 11 10 10 10 9 9 10 10 12 15 18 20 21 21 23 25 24 24 24 26 28 29 28 26 25 24 25 27 30 35 41 44 41 36 32 33 33 32 29 28 31 33 32
2 2 3 4 4 7 6 5 4 4 5 8 7 8 12 13 12 8 4 3 3 2 3 6 7 5 3 7 9 10 8 6 6 5 3 4 8 11 13 12 10 9 9 9 8 9 8 7 7 9 11 14 18 20 21 21 23 25 24 22 22 24 26 27 26 24 22 22 24 26 28 31 34 33 30 30 30 30 32 32 30 30 32 33 32 31
2 2 3 1 3 4 1 6 4 5 8 6 2 1 6 11 13 10 6 4 2 4 4 6 7 7 5 6 7 7 4 1 4 4 4 1 5 7 7 7 8 9 8 7 8 8 7 7 7 9 14 19 21 20 20 21 24 24 22 21 23 24 25 25 24 22 22 23 25 28 29 29 24 20 21 27 30 31 33 32 31 31 30 28 27 28
4 2 3 2 2 2 2 5 7 7 5 3 2 5 4 5 9 10 7 3 3 3 3 6 8 7 6 6 5 4 6 5 6 6 5 4 2 6 7 7 8 9 9 9 9 9 10 12 13 15 18 20 20 20 20 21 21 20 20 20 22 23 24 23 22 22 22 25 27 29 30 28 25 24 28 34 38 39 39 36 33 30 26 23 23 26
3 2 2 2 2 3 3 3 3 1 1 1 2 2 2 3 5 6 4 1 2 3 1 5 6 6 5 4 4 7 7 6 6 5 6 7 5 3 6 8 8 8 8 8 9 10 14 16 18 18 18 17 17 19 19 18 18 18 17 18 19 21 22 22 23 24 25 27 29 31 31 30 31 33 34 37 40 39 33 28 25 23 22 22 24 26
5 3 3 4 2 2 4 2 1 2 3 4 4 3 1 2 4 4 5 2 3 7 4 3 4 3 2 3 5 8 8 7 5 5 6 7 6 1 4 5 6 6 5 6 6 6 9 12 13 13 13 13 13 15 15 15 16 17 17 18 20 21 23 23 24 24 26 27 29 30 31 31 33 35 36 38 36 29 23 20 20 22 23 24 26 27
4 2 3 2 1 2 5 4 3 4 4 5 6 5 2 0 4 3 5 2 5 9 7 3 1 2 4 4 2 4 7 6 2 4 6 6 3 2 6 7 7 7 7 7 6 6 7 10 11 10 11 11 11 13 16 17 18 19 19 20 20 21 21 19 18 20 23 25 26 28 29 29 29 30 31 32 29 24 22 23 25 26 25 25 24 21
5 3 3 3 2 1 4 3 1 2 2 3 4 5 5 2 2 5 5 2 5 8 7 4 3 1 6 8 6 7 7 5 3 2 6 4 2 5 6 8 8 7 8 9 8 9 11 11 9 8 6 6 8 11 14 15 15 14 13 14 15 15 14 12 12 16 20 22 23 24 25 25 25 24 21 18 17 21 25 29 30 28 24 20 16 12
3 3 2 2 3 3 1 4 1 2 2 3 6 8 6 3 4 5 5 4 4 6 6 6 6 4 5 10 10 7 5 4 2 3 5 3 8 10 9 9 10 10 11 12 12 12 12 11 9 8 4 1 3 5 9 11 10 8 9 11 12 11 10 10 11 14 18 20 21 21 21 22 23 21 17 13 16 23 29 30 26 21 17 13 11 11
0 1 2 2 2 4 1 3 1 1 1 6 11 9 3 4 4 3 3 2 2 4 6 7 8 8 10 12 10 7 5 5 5 6 8 10 11 11 11 11 12 14 15 16 16 15 13 11 11 10 8 5 3 5 9 11 11 11 12 13 12 11 11 12 13 16 19 21 22 22 21 21 21 19 16 16 22 26 24 20 15 13 13 14 16 16
3 2 1 1 1 3 2 3 3 1 3 11 14 7 3 5 5 5 2 2 2 5 8 8 8 10 11 11 10 8 8 10 11 10 11 11 11 11 12 11 10 11 12 13 15 13 12 11 10 11 10 8 6 6 9 11 13 14 14 15 14 13 13 14 16 20 22 24 25 24 23 23 21 18 17 17 19 17 13 11 11 13 16 17 17 17
2 3 1 1 1 2 2 1 1 3 6 12 8 3 5 6 5 7 5 3 3 5 7 7 8 9 9 11 11 11 11 12 11 10 11 12 11 11 11 10 10 9 9 12 15 14 13 11 10 11 12 9 7 7 8 11 15 16 16 16 16 16 17 18 21 24 26 27 27 27 26 24 22 19 17 15 14 12 12 13 14 16 19 17 14 16
3 5 6 4 1 1 1 1 2 3 3 8 7 7 9 8 5 4 5 6 4 4 5 6 7 7 8 11 11 11 11 9 9 9 9 9 10 10 10 9 9 10 11 13 15 15 14 12 11 12 13 11 9 7 8 11 16 18 18 18 18 19 20 22 24 26 27 28 29 29 27 25 23 19 16 14 15 17 18 18 18 19 20 17 15 17
2 5 8 7 4 2 3 4 4 3 5 7 8 7 7 7 4 2 5 6 5 4 5 6 7 7 8 10 11 10 8 7 8 8 8 8 8 8 8 9 9 11 13 13 13 12 11 11 11 12 12 11 8 8 9 10 13 16 19 20 20 21 23 25 26 27 28 29 29 29 27 24 22 18 13 12 16 18 18 18 17 16 16 16 16 18
1 1 4 7 7 4 2 3 5 5 5 6 6 6 6 5 2 3 6 5 4 5 6 6 7 7 7 9 11 9 7 7 9 8 7 8 8 7 7 7 6 6 9 9 7 7 9 11 11 11 11 10 7 8 9 9 10 14 18 21 22 23 25 26 27 27 27 27 28 27 26 24 22 17 12 10 12 13 12 11 9 9 12 14 14 17
1 1 2 5 6 5 4 3 1 5 6 5 5 4 3 4 3 4 5 5 6 7 6 6 7 7 6 7 8 9 8 7 6 6 5 5 5 5 5 5 5 6 6 5 6 9 12 12 11 12 12 10 9 9 10 11 13 16 20 22 23 25 26 26 26 26 25 25 24 24 24 24 21 17 13 9 7 8 9 9 8 10 13 14 14 18
4 1 2 5 5 7 6 7 7 8 7 6 4 4 4 2 3 5 4 4 8 10 8 7 8 6 6 6 6 9 10 7 5 6 6 5 5 5 5 5 6 7 8 7 2 6 13 15 15 15 15 14 12 13 13 15 18 21 23 24 25 26 26 25 25 24 24 23 23 23 24 23 20 17 14 12 12 14 14 12 12 15 17 16 15 19
4 1 5 7 8 6 5 7 7 8 5 1 2 4 4 3 5 8 6 5 7 7 7 10 10 7 7 7 7 9 10 8 6 7 8 6 6 6 6 6 6 7 8 8 6 4 8 12 13 14 15 15 15 16 18 20 23 25 26 26 27 27 27 26 24 23 22 23 23 24 24 22 19 18 18 18 20 21 19 16 15 16 17 17 18 20
4 4 4 7 7 5 5 5 4 6 6 4 2 4 4 4 7 9 7 5 5 3 5 10 10 7 7 8 7 8 9 8 7 7 7 6 6 6 7 7 6 7 7 6 5 7 6 7 9 10 11 15 18 20 21 23 25 26 27 28 28 28 29 29 27 24 24 26 27 26 26 25 24 23 23 22 22 21 19 17 15 15 16 17 18 19
Wind_Direction
151 156 182 183 185 176 180 182 172 176 175 168 154 153 176 191 215 208 316 247 166 170 208 197 185 183 180 184 183 183 185 191 196 193 195 195 194 197 198 203 205 209 215 207 204 205 206 208 208 207 207 208 208 209 207 207 208 210 212 214 216 219 221 223 223 222 221 221 223 225 223 223 227 234 236 235 238 237 232 233 239 242 243 247 253 249
148 184 202 192 189 181 178 176 153 156 169 168 151 147 182 203 218 199 357 241 173 176 228 173 143 214 202 191 185 179 188 199 198 196 198 197 198 201 202 206 208 214 216 204 203 207 206 207 207 206 205 205 206 207 207 208 209 211 213 214 217 220 220 222 223 222 221 221 222 222 224 228 231 232 232 232 234 234 232 239 248 249 247 249 248 236
185 208 204 194 186 161 149 154 140 146 165 167 141 139 187 206 190 193 153 156 173 198 264 138 147 248 225 194 194 191 200 207 201 198 199 196 199 205 206 207 208 212 212 205 204 205 206 207 205 203 203 204 206 207 208 209 210 212 213 215 218 220 221 221 222 222 223 224 225 228 233 235 234 234 235 236 239 239 239 243 245 245 240 229 218 209
199 234 202 175 160 135 119 141 139 130 150 159 138 146 199 195 177 220 192 143 150 164 181 129 106 315 196 183 214 213 213 219 211 210 209 202 205 209 207 206 208 209 208 207 208 205 205 206 204 202 202 204 205 206 206 207 209 211 214 217 219 220 222 221 220 222 225 225 226 229 233 234 233 235 236 235 235 239 238 233 227 221 209 199 193 189
225 257 171 144 154 152 134 141 145 131 150 183 172 159 177 187 189 205 157 136 115 68 127 113 54 312 202 183 217 217 214 222 217 210 214 217 216 214 210 210 210 210 208 206 207 206 204 204 203 203 203 203 203 204 205 206 207 210 214 217 220 222 222 221 222 222 222 221 221 221 221 222 224 226 227 223 221 222 220 218 212 200 190 189 188 185
245 259 137 138 165 163 142 156 171 158 154 197 212 181 173 180 181 149 134 131 124 212 213 128 86 288 232 199 211 204 204 215 214 210 215 218 217 213 211 214 214 212 210 207 206 205 204 206 204 204 204 203 203 205 206 207 208 210 214 217 220 221 221 222 222 221 219 218 217 214 210 208 208 208 210 213 213 210 208 208 202 193 189 189 189 189
234 216 138 146 165 167 163 181 196 170 145 192 224 186 172 162 147 145 147 141 150 209 208 169 188 268 285 227 212 199 206 213 212 216 218 217 214 209 209 214 214 211 210 209 209 204 202 205 203 203 205 204 205 207 207 207 208 210 213 217 219 221 221 222 222 220 218 216 216 215 213 212 210 208 212 216 216 212 211 207 198 194 191 190 191 194
197 188 166 154 156 166 176 194 206 166 142 210 215 169 159 151 151 160 159 165 178 139 133 178 179 261 278 252 206 190 206 220 221 223 221 217 215 210 209 214 212 210 208 206 207 205 203 203 202 203 205 206 207 208 206 206 207 210 213 217 220 220 220 221 221 220 219 217 216 216 217 218 219 221 224 223 215 212 214 208 201 198 194 191 193 196
188 190 190 165 157 179 192 201 186 157 157 227 190 152 153 156 161 167 169 185 167 106 169 227 157 183 260 280 194 181 202 223 226 224 220 216 214 210 209 212 212 210 207 204 206 207 206 205 205 204 205 207 208 207 206 206 208 210 213 216 219 219 219 220 221 220 220 220 220 219 219 221 224 228 231 225 214 209 210 206 200 195 190 189 191 193
228 200 186 163 169 198 210 209 170 162 195 215 145 112 96 112 136 158 172 166 100 122 212 218 181 197 258 274 175 172 204 224 227 225 220 215 212 210 209 210 211 209 205 205 206 207 209 210 208 206 206 207 208 207 207 207 208 209 212 215 217 218 218 219 220 220 220 220 220 220 220 222 225 225 224 217 207 204 203 199 193 188 185 184 185 186
271 255 170 164 182 185 189 201 175 177 181 140 111 86 64 54 66 83 89 94 95 196 236 211 191 197 248 261 185 181 208 214 218 226 221 213 212 211 210 208 207 206 202 202 205 207 210 210 208 206 206 208 208 208 208 207 208 209 211 214 216 219 219 219 219 219 220 220 220 221 222 224 225 222 217 207 199 196 195 193 189 186 184 184 185 186
280 268 227 209 189 155 150 175 200 200 172 126 103 101 106 27 30 40 11 51 125 244 253 215 187 191 239 256 215 212 220 213 212 221 215 208 208 208 209 207 203 202 198 197 202 205 206 205 203 202 205 207 206 207 207 207 208 208 211 213 216 218 218 218 219 218 219 220 221 223 223 224 224 220 214 205 198 195 192 192 190 187 186 187 188 191
261 237 257 278 248 150 143 160 195 253 131 129 118 112 138 256 20 105 284 80 183 244 255 176 151 184 244 249 240 233 237 228 220 222 216 208 205 203 205 204 201 198 195 196 197 199 199 197 197 199 202 204 204 206 207 206 207 208 211 213 214 217 217 217 217 217 218 219 221 222 221 222 221 218 214 208 202 198 196 194 191 190 190 190 190 192
259 267 254 253 274 188 158 163 177 198 158 153 149 140 156 167 161 210 236 359 223 257 283 144 153 204 268 259 244 235 235 231 226 229 226 213 200 201 204 200 195 196 195 196 195 195 197 196 196 198 200 202 204 206 206 205 206 207 210 212 214 217 217 216 216 216 217 219 220 221 220 220 218 215 213 209 205 202 199 197 196 196 196 195 194 193
190 245 221 206 241 213 182 181 164 149 157 179 165 147 162 163 170 209 198 184 211 244 330 120 160 193 206 245 242 234 238 231 228 240 241 223 190 191 199 194 192 197 196 196 197 196 196 195 196 198 199 201 203 205 205 206 207 207 209 212 213 216 216 215 215 214 215 217 219 219 218 218 217 214 212 210 209 207 203 201 200 201 201 199 198 197
189 239 246 230 220 182 190 194 144 128 162 209 147 133 186 183 164 188 187 180 177 143 108 174 212 217 212 273 288 278 277 243 226 237 235 222 182 168 185 191 191 197 196 196 197 198 197 195 196 198 200 202 203 204 205 207 208 208 210 212 213 216 216 215 213 213 215 216 217 217 217 217 214 213 211 209 209 209 206 204 203 202 203 202 202 202
181 250 265 241 227 199 188 181 165 168 181 182 145 179 209 167 141 153 219 164 123 184 244 190 239 283 304 295 294 279 278 263 240 228 223 216 177 167 190 192 189 196 196 196 196 196 196 193 196 198 199 200 201 203 206 209 210 211 211 212 214 216 216 215 214 213 214 215 217 216 216 216 213 212 212 210 208 208 207 206 204 203 203 202 203 204
163 254 266 204 223 240 191 171 204 200 161 135 183 199 170 98 108 123 190 27 77 225 263 192 208 238 173 281 304 288 239 251 251 231 221 208 174 186 199 190 190 196 194 195 196 196 196 193 195 197 199 200 201 203 207 210 212 213 214 214 214 216 215 215 214 213 213 214 215 215 215 215 214 214 214 212 210 207 204 204 204 205 204 203 203 206
164 242 282 212 209 230 158 169 242 247 184 148 184 175 140 148 210 138 170 186 155 215 263 284 248 235 198 223 281 261 227 235 242 228 212 199 190 200 203 191 192 192 190 194 196 197 197 194 196 197 199 202 203 205 209 212 213 214 217 217 217 218 218 216 214 212 213 214 214 215 217 216 215 215 213 211 209 207 205 204 203 205 206 205 205 208
167 206 270 247 211 190 143 179 219 232 229 69 118 154 149 165 177 181 172 169 187 206 227 276 284 252 229 216 216 224 227 230 227 215 211 207 202 206 200 188 190 189 189 192 194 197 195 194 197 198 199 201 203 207 210 211 212 214 217 218 218 219 219 217 216 214 214 214 214 216 217 215 213 213 211 209 208 207 205 205 206 209 208 206 208 211
177 187 229 274 273 181 188 205 209 209 190 133 157 175 180 120 134 186 180 137 155 173 178 205 241 254 247 211 200 218 228 224 214 209 215 213 207 204 191 183 191 192 192 193 193 196 194 194 198 200 202 203 204 208 210 210 211 214 216 216 217 217 216 216 216 215 214 214 213 214 214 212 210 210 209 208 207 207 206 206 211 214 211 207 209 211
193 185 204 248 262 205 231 235 213 202 179 166 183 181 176 164 130 180 241 235 130 161 176 182 214 256 250 199 200 218 222 221 215 210 217 215 201 195 189 191 194 190 191 194 193 193 192 194 197 199 202 203 204 208 209 210 212 214 215 215 216 215 215 215 215 214 214 212 211 211 212 210 209 209 208 206 205 206 206 208 214 215 212 209 208 209
170 153 189 224 234 224 238 247 223 202 182 174 189 186 177 168 152 183 222 230 177 191 151 140 199 261 258 204 204 217 217 224 222 211 219 217 196 190 195 197 194 190 193 194 192 192 192 193 195 197 199 201 203 207 208 209 211 212 214 214 214 213 214 216 215 214 213 210 210 210 210 209 209 208 206 204 204 204 205 209 214 214 213 210 208 207
165 150 179 218 255 254 256 275 300 202 171 185 213 194 181 189 190 194 195 178 187 198 151 142 234 263 275 261 231 226 219 227 224 209 208 210 199 194 195 194 191 191 193 192 192 193 190 191 193 196 199 201 204 207 208 210 211 213 215 214 213 214 215 215 214 213 211 210 210 210 208 207 207 207 206 204 203 202 203 208 212 213 213 211 207 206
202 190 156 167 220 246 259 277 283 237 175 197 220 197 193 195 186 169 110 148 208 206 170 171 226 249 270 313 307 227 206 220 232 220 205 198 196 196 194 193 192 189 188 189 190 190 187 189 193 197 200 202 205 208 209 210 212 213 215 215 214 216 216 215 213 212 211 210 210 209 208 207 206 206 206 205 202 201 203 206 210 213 213 209 207 207
195 191 165 174 196 215 223 228 232 211 187 219 204 182 192 185 175 168 123 163 221 222 169 172 208 249 275 304 304 230 195 208 232 235 229 215 199 193 189 189 190 186 189 191 189 189 189 190 195 199 202 203 206 208 210 211 213 214 216 216 217 217 216 214 212 211 211 210 209 209 209 208 206 206 206 204 200 199 203 209 214 215 214 210 209 209
156 189 185 187 198 208 210 218 219 169 161 204 201 183 184 180 179 174 149 177 196 171 179 209 197 210 252 251 240 237 211 211 219 215 221 221 200 188 188 189 189 191 196 195 190 190 188 192 199 200 202 206 208 210 212 213 214 214 215 217 218 218 216 214 212 212 212 210 210 210 210 209 207 204 201 197 196 199 206 216 221 221 220 216 212 211
110 203 200 194 204 211 209 210 204 170 176 196 195 191 190 183 177 175 189 198 164 144 221 247 196 185 223 226 220 228 219 216 222 213 216 218 202 186 175 171 182 196 204 200 195 193 191 196 201 200 202 206 209 212 214 215 216 216 216 218 217 216 215 213 212 212 212 211 211 212 213 211 204 195 190 191 197 204 209 216 225 229 228 223 217 215
138 213 208 197 211 217 216 212 192 178 197 194 186 197 197 186 180 186 204 195 158 171 224 221 178 191 221 221 216 219 208 203 210 209 208 209 191 170 156 165 186 201 205 203 198 195 197 200 200 200 203 204 206 210 213 215 217 217 217 219 216 214 214 213 212 212 211 211 213 215 217 212 194 185 189 191 197 205 208 212 220 227 230 230 225 220
172 229 208 195 218 225 222 217 195 189 210 211 203 203 194 191 191 197 208 193 177 204 219 185 181 204 217 212 216 221 209 200 195 173 173 185 184 176 172 182 197 204 205 204 201 199 202 203 200 198 198 200 204 208 210 212 214 215 216 217 215 214 214 213 213 212 211 213 216 217 216 195 163 179 192 192 197 205 208 212 219 223 228 232 231 227
201 240 210 167 213 238 230 221 205 199 211 222 228 220 192 183 193 210 231 205 189 221 224 168 181 220 235 217 216 222 173 154 154 166 186 196 187 180 184 192 203 208 206 202 201 201 202 199 192 191 192 199 204 206 208 211 212 214 217 216 215 215 214 213 214 214 213 215 216 212 200 176 175 190 197 196 198 201 202 208 219 224 227 231 231 230
208 235 327 119 188 246 231 216 214 205 208 230 238 232 213 190 187 205 215 187 191 213 200 143 177 230 243 216 199 189 148 169 192 193 193 198 188 183 193 202 206 205 200 198 198 196 195 192 188 191 195 199 201 202 207 210 210 213 216 215 214 215 213 213 215 215 215 215 211 204 196 188 189 196 198 195 195 195 195 203 214 220 227 233 233 230
170 174 181 144 193 257 232 204 204 181 183 240 241 224 211 196 190 200 187 186 191 176 159 179 213 230 216 174 182 201 187 196 212 202 191 196 193 191 199 205 205 197 191 195 196 191 192 193 191 195 195 194 198 205 210 210 209 215 218 215 212 212 210 212 215 215 213 212 206 201 198 196 197 200 198 191 188 190 194 203 210 209 216 229 233 232
139 177 229 174 193 251 240 172 141 146 198 239 245 217 205 198 193 191 173 189 211 180 189 225 248 256 180 161 186 203 205 222 235 220 200 193 192 201 209 204 191 184 185 187 188 188 189 186 183 189 195 201 209 214 214 213 216 221 220 214 209 210 210 211 212 211 209 208 204 201 201 201 202 203 193 180 182 192 198 204 207 205 210 222 229 232
262 220 243 209 190 233 186 115 144 221 228 234 287 274 206 193 178 155 115 87 35 344 295 268 264 255 226 203 202 190 172 44 25 24 1 324 187 194 209 199 174 168 175 175 176 179 174 172 174 182 199 210 215 214 213 216 221 221 217 211 208 207 208 208 207 206 205 203 203 204 204 200 195 187 175 172 182 197 203 202 201 205 216 225 228 233
264 239 204 201 196 191 121 146 199 233 233 223 16 32 62 123 133 118 94 64 32 4 280 262 270 271 259 249 233 155 133 105 64 38 1 341 223 174 176 189 177 166 171 173 174 179 179 181 186 191 202 212 212 209 212 217 219 216 211 207 205 203 205 204 202 201 201 202 204 205 202 194 185 179 176 179 187 197 201 198 194 200 216 230 231 236
191 205 209 221 206 162 147 181 207 199 184 244 349 28 83 117 144 140 127 168 317 4 280 252 278 300 294 252 180 139 130 98 53 8 352 349 314 208 169 176 170 157 167 173 174 185 188 189 193 195 199 202 201 205 210 213 213 210 203 199 198 199 200 200 200 200 200 203 205 203 199 193 188 185 182 185 192 197 196 193 192 199 216 230 233 237
156 160 193 217 221 126 110 119 123 129 185 232 254 251 213 149 197 175 124 126 321 352 357 269 261 281 283 232 174 148 119 72 26 315 321 338 319 273 126 136 134 120 133 149 150 164 175 183 192 196 195 193 197 207 212 211 209 204 196 193 193 194 197 200 202 201 200 203 204 201 198 194 191 188 186 190 196 193 182 181 191 201 213 228 236 239
73 113 140 156 207 127 123 138 170 168 192 235 251 271 323 356 205 157 102 97 320 342 345 317 272 152 148 159 182 123 95 79 34 303 313 321 318 111 106 100 90 84 87 95 101 119 147 167 178 181 184 191 206 217 216 210 205 199 194 191 189 190 194 198 200 198 199 203 203 199 196 192 190 189 189 191 192 181 169 175 190 203 219 237 245 244
15 18 50 34 334 224 133 128 183 196 209 264 278 303 325 322 155 126 124 210 308 334 335 356 36 93 132 119 89 63 75 103 120 328 303 294 68 69 74 82 83 85 84 82 94 121 136 143 143 141 161 205 234 228 212 203 197 190 185 181 177 179 185 188 192 196 198 200 196 191 188 185 184 184 183 182 175 168 170 178 190 208 230 243 245 244
1 354 18 18 334 320 99 115 143 241 244 299 309 303 309 358 82 130 179 235 314 342 344 16 41 42 76 90 87 74 67 89 94 344 323 20 64 52 47 60 64 64 66 66 74 96 109 106 90 81 77 324 279 215 191 183 169 146 142 151 156 163 173 178 182 185 187 186 180 176 175 177 178 174 168 163 166 172 179 186 196 219 241 245 248 256
253 345 353 353 337 325 5 112 57 264 242 333 326 309 312 72 101 169 202 271 345 28 34 34 44 55 61 68 75 77 65 52 44 28 25 42 52 46 41 45 47 45 46 49 53 64 75 72 62 61 61 56 83 147 168 163 140 125 129 138 146 160 170 170 168 169 170 168 163 160 163 168 172 171 167 172 177 180 186 198 217 247 258 253 257 260
171 121 14 306 290 321 4 61 49 219 286 330 330 321 29 78 142 165 118 32 23 72 71 57 49 57 66 71 72 71 64 52 42 37 36 38 45 50 48 48 48 43 40 44 43 46 59 67 63 62 67 73 94 131 156 148 128 122 127 133 145 161 165 162 162 161 159 157 156 157 160 165 167 167 166 172 179 184 199 223 243 256 255 255 260 253
156 135 164 224 348 340 345 50 132 223 292 327 340 70 73 61 120 142 121 89 64 70 76 69 56 55 67 77 74 64 58 53 44 40 38 34 37 45 46 48 53 51 49 52 47 42 50 63 66 66 70 78 95 119 148 146 131 125 129 139 151 160 160 158 159 156 154 154 156 158 163 168 170 167 165 169 179 191 211 228 237 240 237 239 245 241
206 161 134 104 75 237 164 177 236 240 316 346 15 73 84 75 78 104 113 101 77 70 84 81 71 64 66 72 71 62 56 53 48 46 47 43 41 43 44 42 43 45 52 59 57 52 54 61 66 69 71 74 88 116 146 150 140 134 138 148 157 160 158 157 156 155 155 156 160 164 167 167 166 162 162 173 188 197 204 211 215 219 222 221 222 228
192 145 112 107 158 180 67 33 341 357 35 32 24 36 72 84 77 81 97 93 85 88 92 87 84 79 75 78 75 66 57 59 57 47 39 42 42 41 46 45 35 37 48 55 58 62 70 76 75 71 71 74 92 127 145 151 150 146 148 155 161 162 161 159 158 158 160 162 168 173 173 171 169 165 161 172 184 189 194 200 206 215 223 223 221 224
141 166 87 117 151 154 51 353 343 8 42 57 45 28 33 43 44 85 92 96 104 94 82 84 85 75 70 79 84 79 65 55 58 50 33 32 29 20 33 46 35 36 56 69 84 96 100 100 95 87 83 85 103 131 146 158 165 160 157 160 163 164 164 162 160 162 166 171 177 180 181 182 182 180 178 184 190 193 196 199 203 219 230 231 229 230
276 302 66 116 133 121 132 178 79 52 46 53 72 73 33 13 24 69 84 98 97 83 74 82 86 77 70 77 86 88 76 57 60 67 53 40 26 6 11 21 9 7 28 62 115 129 125 123 123 121 120 127 140 149 158 170 173 168 164 163 163 164 164 163 165 168 173 177 179 183 187 189 190 193 199 203 194 181 175 172 174 194 213 224 233 234
312 303 104 123 113 95 116 154 134 87 47 21 46 71 52 37 64 66 63 80 88 87 85 75 68 70 82 87 86 83 75 61 54 65 61 48 31 10 355 352 348 341 338 339 338 150 145 144 149 150 148 151 157 159 164 170 171 170 168 163 163 165 164 166 170 174 175 177 178 183 190 192 194 195 189 169 151 150 157 172 192 204 209 218 230 233
326 200 139 133 134 132 158 174 151 119 102 38 27 45 29 36 82 80 64 58 79 101 110 95 80 65 65 70 72 74 72 59 43 48 52 41 22 3 343 334 332 324 321 323 308 237 174 160 166 169 160 156 159 159 161 164 165 167 167 164 165 167 166 165 166 166 168 175 180 184 188 187 184 178 168 159 157 161 169 187 206 212 214 221 230 233
301 225 172 136 133 141 153 156 136 116 128 151 116 70 51 52 76 80 71 64 73 86 96 98 97 89 74 67 63 70 74 67 55 55 56 44 21 2 346 331 318 308 307 298 256 230 210 185 182 174 156 153 158 158 157 159 161 164 166 164 164 165 163 159 157 156 162 171 176 179 178 174 170 169 169 169 172 176 183 193 202 210 219 227 233 235